WZZ4733 LUKK-LBSF

Flight info

Callsign WZZ4733
Flight time 1h 1m
Altitude 38000
Route LIPTA T34 BOTNA DCT TEVRO DCT GOL
Aircraft A321/M-SDE3FGHIRWY/LB1

Departure

Time 2026-05-06 16:59
Airport Chişinău International Airport (LUKK)

Arrival

Time 2026-05-06 18:01
Airport Sofia Airport (LBSF)
Time Latitude Longitude Altitude Speed Heading
2026-05-06 16:25 46.93372 28.93541 343 ft 0 kts
2026-05-06 16:49 46.93375 28.93542 343 ft 2 kts
2026-05-06 16:50 46.93403 28.93540 343 ft 6 kts 336°
2026-05-06 16:50 46.93403 28.93489 343 ft 7 kts 213°
2026-05-06 16:50 46.93344 28.93473 343 ft 10 kts 184°
2026-05-06 16:50 46.93265 28.93461 343 ft 13 kts 186°
2026-05-06 16:51 46.93184 28.93447 343 ft 5 kts 186°
2026-05-06 16:51 46.93165 28.93445 343 ft 0 kts 186°
2026-05-06 16:51 46.93158 28.93447 343 ft 1 kts 146°
2026-05-06 16:51 46.93146 28.93498 343 ft 9 kts 90°
2026-05-06 16:52 46.93141 28.93604 343 ft 12 kts 95°
2026-05-06 16:52 46.93131 28.93746 343 ft 16 kts 96°
2026-05-06 16:52 46.93117 28.93925 343 ft 19 kts 97°
2026-05-06 16:52 46.93099 28.94137 343 ft 23 kts 97°
2026-05-06 16:53 46.93082 28.94380 343 ft 25 kts 96°
2026-05-06 16:53 46.93060 28.94651 343 ft 28 kts 98°
2026-05-06 16:53 46.93040 28.94893 343 ft 24 kts 97°
2026-05-06 16:53 46.93027 28.95068 343 ft 7 kts 99°
2026-05-06 16:54 46.92994 28.95108 343 ft 8 kts 165°
2026-05-06 16:54 46.92954 28.95114 343 ft 2 kts 178°
2026-05-06 16:54 46.92952 28.95114 343 ft 0 kts 178°
2026-05-06 16:56 46.92951 28.95114 343 ft 0 kts 178°
2026-05-06 16:57 46.92931 28.95115 343 ft 6 kts 178°
2026-05-06 16:57 46.92869 28.95118 343 ft 11 kts 177°
2026-05-06 16:57 46.92829 28.95198 343 ft 13 kts 88°
2026-05-06 16:57 46.92855 28.95333 343 ft 16 kts 48°
2026-05-06 16:58 46.92856 28.95433 343 ft 6 kts 161°
2026-05-06 16:58 46.92837 28.95403 343 ft 6 kts 261°
2026-05-06 16:58 46.92836 28.95387 343 ft 2 kts 266°
2026-05-06 16:58 46.92833 28.95306 343 ft 21 kts 266°
2026-05-06 16:59 46.92817 28.94688 343 ft 98 kts 267°
2026-05-06 16:59 46.92786 28.93361 343 ft 160 kts 266°
2026-05-06 16:59 46.92739 28.91596 733 ft 176 kts 265°
2026-05-06 16:59 46.92695 28.89808 1559 ft 175 kts 265°
2026-05-06 17:00 46.92644 28.87963 2127 ft 187 kts 259°
2026-05-06 17:00 46.92241 28.86124 2556 ft 200 kts 240°
2026-05-06 17:00 46.91365 28.84469 2941 ft 219 kts 218°
2026-05-06 17:00 46.90038 28.83167 3371 ft 237 kts 209°
2026-05-06 17:01 46.88563 28.81896 3899 ft 255 kts 208°
2026-05-06 17:01 46.87003 28.80550 4590 ft 264 kts 210°
2026-05-06 17:01 46.85462 28.79070 5445 ft 267 kts 213°
2026-05-06 17:01 46.83912 28.77531 6251 ft 271 kts 213°
2026-05-06 17:02 46.82341 28.75987 7076 ft 273 kts 212°
2026-05-06 17:02 46.80734 28.74465 7845 ft 279 kts 211°
2026-05-06 17:02 46.79086 28.72949 8624 ft 282 kts 210°
2026-05-06 17:02 46.77406 28.71399 9285 ft 290 kts 211°
2026-05-06 17:03 46.75694 28.69785 9968 ft 296 kts 212°
2026-05-06 17:03 46.73955 28.68125 10632 ft 303 kts 212°
2026-05-06 17:03 46.72148 28.66415 11081 ft 317 kts 212°
2026-05-06 17:03 46.70219 28.64605 11457 ft 334 kts 212°
2026-05-06 17:04 46.68250 28.62756 11805 ft 349 kts 213°
2026-05-06 17:04 46.66186 28.60821 12405 ft 354 kts 213°
2026-05-06 17:04 46.64109 28.58866 13137 ft 356 kts 212°
2026-05-06 17:04 46.62048 28.56836 13787 ft 360 kts 217°
2026-05-06 17:05 46.60052 28.54519 14407 ft 365 kts 218°
2026-05-06 17:05 46.58019 28.52367 15053 ft 367 kts 215°
2026-05-06 17:05 46.55893 28.50260 15624 ft 372 kts 213°
2026-05-06 17:05 46.53731 28.48163 16238 ft 375 kts 213°
2026-05-06 17:06 46.51568 28.46009 16846 ft 378 kts 214°
2026-05-06 17:06 46.49416 28.43777 17420 ft 382 kts 216°
2026-05-06 17:06 46.47264 28.41497 17987 ft 385 kts 216°
2026-05-06 17:06 46.45099 28.39199 18542 ft 388 kts 216°
2026-05-06 17:07 46.42902 28.36897 19070 ft 391 kts 215°
2026-05-06 17:07 46.40679 28.34593 19588 ft 394 kts 215°
2026-05-06 17:07 46.38439 28.32282 20095 ft 397 kts 215°
2026-05-06 17:07 46.36182 28.29948 20597 ft 400 kts 216°
2026-05-06 17:08 46.34039 28.27351 21083 ft 403 kts 223°
2026-05-06 17:08 46.32030 28.24494 21518 ft 407 kts 226°
2026-05-06 17:08 46.30047 28.21540 21929 ft 411 kts 227°
2026-05-06 17:08 46.28059 28.18542 22376 ft 414 kts 227°
2026-05-06 17:09 46.26043 28.15546 22821 ft 417 kts 226°
2026-05-06 17:09 46.23992 28.12560 23260 ft 420 kts 226°
2026-05-06 17:09 46.21917 28.09571 23655 ft 423 kts 226°
2026-05-06 17:09 46.19826 28.06559 24041 ft 426 kts 226°
2026-05-06 17:10 46.17725 28.03515 24433 ft 429 kts 226°
2026-05-06 17:10 46.15616 28.00448 24828 ft 432 kts 226°
2026-05-06 17:10 46.13498 27.97368 25214 ft 434 kts 226°
2026-05-06 17:10 46.11363 27.94272 25591 ft 436 kts 226°
2026-05-06 17:11 46.09216 27.91170 25958 ft 439 kts 226°
2026-05-06 17:11 46.07054 27.88054 26327 ft 441 kts 226°
2026-05-06 17:11 46.04881 27.84923 26682 ft 443 kts 226°
2026-05-06 17:11 46.02696 27.81777 27024 ft 445 kts 226°
2026-05-06 17:12 46.00499 27.78618 27338 ft 448 kts 227°
2026-05-06 17:12 45.98293 27.75448 27708 ft 449 kts 227°
2026-05-06 17:12 45.96083 27.72271 28064 ft 450 kts 227°
2026-05-06 17:12 45.93864 27.69087 28375 ft 452 kts 227°
2026-05-06 17:13 45.91632 27.65890 28688 ft 454 kts 227°
2026-05-06 17:13 45.89389 27.62684 28987 ft 456 kts 227°
2026-05-06 17:13 45.87167 27.59511 29284 ft 458 kts 227°
2026-05-06 17:13 45.84905 27.56286 29579 ft 459 kts 227°
2026-05-06 17:14 45.82636 27.53054 29873 ft 461 kts 227°
2026-05-06 17:14 45.80355 27.49808 30155 ft 463 kts 227°
2026-05-06 17:14 45.78065 27.46552 30431 ft 464 kts 227°
2026-05-06 17:14 45.75768 27.43292 30692 ft 466 kts 227°
2026-05-06 17:15 45.73462 27.40021 30953 ft 468 kts 227°
2026-05-06 17:15 45.71147 27.36742 31208 ft 469 kts 227°
2026-05-06 17:15 45.68827 27.33462 31557 ft 468 kts 227°
2026-05-06 17:15 45.66515 27.30197 31881 ft 467 kts 227°
2026-05-06 17:16 45.64207 27.26944 32210 ft 466 kts 228°
2026-05-06 17:16 45.61913 27.23715 32709 ft 459 kts 228°
2026-05-06 17:16 45.59647 27.20525 33108 ft 457 kts 228°
2026-05-06 17:16 45.57383 27.17336 33305 ft 458 kts 228°
2026-05-06 17:17 45.55115 27.14146 33600 ft 457 kts 228°
2026-05-06 17:17 45.52847 27.10963 33867 ft 457 kts 228°
2026-05-06 17:17 45.50581 27.07792 34160 ft 456 kts 228°
2026-05-06 17:17 45.48319 27.04629 34416 ft 455 kts 228°
2026-05-06 17:18 45.46060 27.01472 34670 ft 455 kts 228°
2026-05-06 17:18 45.43799 26.98315 34925 ft 454 kts 228°
2026-05-06 17:18 45.41542 26.95167 35170 ft 454 kts 228°
2026-05-06 17:18 45.39285 26.92025 35399 ft 454 kts 228°
2026-05-06 17:19 45.37029 26.88889 35630 ft 453 kts 228°
2026-05-06 17:19 45.34777 26.85762 35872 ft 453 kts 228°
2026-05-06 17:19 45.32520 26.82632 36084 ft 452 kts 228°
2026-05-06 17:19 45.30271 26.79512 36288 ft 452 kts 228°
2026-05-06 17:20 45.28021 26.76397 36480 ft 452 kts 228°
2026-05-06 17:20 45.25773 26.73288 36718 ft 450 kts 228°
2026-05-06 17:20 45.23542 26.70207 37041 ft 446 kts 228°
2026-05-06 17:21 45.19098 26.64079 37033 ft 446 kts 228°
2026-05-06 17:21 45.14679 26.57999 37029 ft 446 kts 228°
2026-05-06 17:22 45.10228 26.51886 37028 ft 446 kts 228°
2026-05-06 17:22 45.05770 26.45780 37030 ft 446 kts 228°
2026-05-06 17:23 45.02026 26.40669 37031 ft 446 kts 228°
2026-05-06 17:23 44.97559 26.34579 37030 ft 446 kts 228°
2026-05-06 17:24 44.93093 26.28498 37011 ft 446 kts 228°
2026-05-06 17:24 44.88617 26.22424 36984 ft 447 kts 228°
2026-05-06 17:25 44.84131 26.16351 36976 ft 447 kts 228°
2026-05-06 17:25 44.79642 26.10285 36981 ft 447 kts 228°
2026-05-06 17:26 44.75145 26.04221 36984 ft 448 kts 228°
2026-05-06 17:26 44.70640 25.98160 36984 ft 449 kts 228°
2026-05-06 17:27 44.66121 25.92099 37021 ft 449 kts 228°
2026-05-06 17:27 44.61641 25.86101 37072 ft 448 kts 228°
2026-05-06 17:28 44.57124 25.80060 37064 ft 449 kts 228°
2026-05-06 17:28 44.52599 25.74031 37064 ft 449 kts 228°
2026-05-06 17:29 44.48068 25.68010 37060 ft 449 kts 228°
2026-05-06 17:29 44.43536 25.61995 37057 ft 449 kts 228°
2026-05-06 17:30 44.39014 25.56008 36863 ft 445 kts 228°
2026-05-06 17:30 44.36768 25.53041 36496 ft 444 kts 228°
2026-05-06 17:30 44.34488 25.50115 36248 ft 447 kts 225°
2026-05-06 17:30 44.32041 25.47422 36002 ft 449 kts 223°
2026-05-06 17:31 44.29538 25.44791 35763 ft 451 kts 221°
2026-05-06 17:31 44.27011 25.42193 35521 ft 451 kts 221°
2026-05-06 17:31 44.24484 25.39595 35276 ft 452 kts 221°
2026-05-06 17:31 44.21964 25.36972 35031 ft 452 kts 222°
2026-05-06 17:32 44.19455 25.34335 34788 ft 452 kts 222°
2026-05-06 17:32 44.16945 25.31691 34543 ft 453 kts 222°
2026-05-06 17:32 44.14431 25.29057 34299 ft 453 kts 222°
2026-05-06 17:32 44.11905 25.26427 34054 ft 453 kts 222°
2026-05-06 17:33 44.09376 25.23804 33810 ft 454 kts 222°
2026-05-06 17:33 44.06844 25.21177 33565 ft 454 kts 222°
2026-05-06 17:33 44.04350 25.18589 33321 ft 452 kts 222°
2026-05-06 17:33 44.01835 25.15981 33072 ft 450 kts 221°
2026-05-06 17:34 43.99331 25.13386 32826 ft 449 kts 222°
2026-05-06 17:34 43.96830 25.10794 32581 ft 448 kts 222°
2026-05-06 17:34 43.94336 25.08212 32334 ft 447 kts 222°
2026-05-06 17:34 43.91848 25.05640 32085 ft 444 kts 222°
2026-05-06 17:35 43.89373 25.03086 31838 ft 443 kts 221°
2026-05-06 17:35 43.86910 25.00549 31588 ft 440 kts 221°
2026-05-06 17:35 43.84459 24.98026 31343 ft 439 kts 221°
2026-05-06 17:36 43.79581 24.93011 30772 ft 434 kts 221°
2026-05-06 17:36 43.77160 24.90526 30273 ft 432 kts 221°
2026-05-06 17:36 43.74752 24.88055 29713 ft 431 kts 221°
2026-05-06 17:36 43.72343 24.85584 29147 ft 430 kts 221°
2026-05-06 17:37 43.69942 24.83128 28587 ft 429 kts 221°
2026-05-06 17:37 43.67547 24.80682 28027 ft 427 kts 221°
2026-05-06 17:37 43.65165 24.78251 27485 ft 425 kts 221°
2026-05-06 17:37 43.62791 24.75828 26897 ft 424 kts 221°
2026-05-06 17:38 43.60427 24.73413 26318 ft 422 kts 219°
2026-05-06 17:38 43.58072 24.71017 25763 ft 420 kts 218°
2026-05-06 17:38 43.55729 24.68637 25212 ft 417 kts 218°
2026-05-06 17:38 43.53397 24.66268 24649 ft 415 kts 218°
2026-05-06 17:39 43.51076 24.63911 24077 ft 413 kts 219°
2026-05-06 17:39 43.48770 24.61570 23509 ft 411 kts 219°
2026-05-06 17:39 43.46478 24.59245 22967 ft 407 kts 219°
2026-05-06 17:39 43.44205 24.56946 22435 ft 403 kts 218°
2026-05-06 17:40 43.41955 24.54674 21862 ft 400 kts 218°
2026-05-06 17:40 43.39720 24.52417 21302 ft 397 kts 219°
2026-05-06 17:40 43.37505 24.50180 20763 ft 393 kts 218°
2026-05-06 17:40 43.35315 24.47969 20232 ft 389 kts 217°
2026-05-06 17:41 43.33148 24.45785 19685 ft 385 kts 217°
2026-05-06 17:41 43.31001 24.43626 19178 ft 380 kts 217°
2026-05-06 17:41 43.28899 24.41513 18889 ft 369 kts 217°
2026-05-06 17:41 43.26864 24.39470 18641 ft 357 kts 217°
2026-05-06 17:42 43.24874 24.37472 18399 ft 355 kts 217°
2026-05-06 17:42 43.22885 24.35472 18154 ft 354 kts 217°
2026-05-06 17:42 43.20902 24.33480 17905 ft 352 kts 217°
2026-05-06 17:42 43.18927 24.31502 17657 ft 351 kts 217°
2026-05-06 17:43 43.16959 24.29533 17392 ft 349 kts 217°
2026-05-06 17:43 43.14999 24.27576 16888 ft 348 kts 217°
2026-05-06 17:43 43.13028 24.25607 16047 ft 355 kts 217°
2026-05-06 17:43 43.11002 24.23583 15064 ft 365 kts 217°
2026-05-06 17:44 43.09081 24.21375 14328 ft 365 kts 227°
2026-05-06 17:44 43.07424 24.18738 13965 ft 354 kts 232°
2026-05-06 17:44 43.05931 24.16149 13837 ft 340 kts 233°
2026-05-06 17:44 43.04513 24.13635 13714 ft 329 kts 233°
2026-05-06 17:45 43.03112 24.11185 13594 ft 327 kts 232°
2026-05-06 17:45 43.01711 24.08789 13473 ft 326 kts 232°
2026-05-06 17:45 43.00285 24.06384 13350 ft 326 kts 232°
2026-05-06 17:45 42.98864 24.03990 13220 ft 319 kts 232°
2026-05-06 17:46 42.97497 24.01682 13087 ft 307 kts 232°
2026-05-06 17:46 42.96173 23.99442 12959 ft 300 kts 232°
2026-05-06 17:46 42.94869 23.97231 12837 ft 298 kts 232°
2026-05-06 17:46 42.93569 23.95030 12714 ft 298 kts 232°
2026-05-06 17:47 42.92272 23.92836 12590 ft 297 kts 232°
2026-05-06 17:47 42.90975 23.90645 12466 ft 297 kts 232°
2026-05-06 17:47 42.89680 23.88461 12295 ft 295 kts 232°
2026-05-06 17:47 42.88391 23.86285 11853 ft 296 kts 232°
2026-05-06 17:48 42.87095 23.84103 11361 ft 296 kts 232°
2026-05-06 17:48 42.85797 23.81922 10917 ft 295 kts 232°
2026-05-06 17:48 42.84409 23.79874 10467 ft 295 kts 219°
2026-05-06 17:48 42.82587 23.78659 10011 ft 291 kts 192°
2026-05-06 17:49 42.80618 23.78332 9806 ft 280 kts 184°
2026-05-06 17:49 42.78709 23.78235 9608 ft 269 kts 181°
2026-05-06 17:49 42.76917 23.78629 9346 ft 256 kts 154°
2026-05-06 17:49 42.75608 23.80152 9121 ft 247 kts 121°
2026-05-06 17:50 42.75144 23.82360 8922 ft 246 kts 90°
2026-05-06 17:50 42.75237 23.84682 8779 ft 246 kts 86°
2026-05-06 17:50 42.75254 23.87000 8580 ft 245 kts 94°
2026-05-06 17:50 42.75080 23.89301 8382 ft 244 kts 97°
2026-05-06 17:51 42.74875 23.91592 8188 ft 244 kts 96°
2026-05-06 17:51 42.74720 23.93886 8058 ft 244 kts 94°
2026-05-06 17:51 42.74361 23.96127 7959 ft 243 kts 117°
2026-05-06 17:51 42.73246 23.97805 7950 ft 242 kts 151°
2026-05-06 17:52 42.71641 23.98351 7961 ft 240 kts 185°
2026-05-06 17:52 42.70005 23.97921 8003 ft 240 kts 194°
2026-05-06 17:52 42.68394 23.97352 7993 ft 237 kts 200°
2026-05-06 17:52 42.67015 23.96267 7962 ft 227 kts 227°
2026-05-06 17:53 42.66312 23.94434 7964 ft 224 kts 262°
2026-05-06 17:53 42.66357 23.92324 8004 ft 224 kts 278°
2026-05-06 17:53 42.66599 23.90230 7881 ft 224 kts 278°
2026-05-06 17:53 42.66788 23.88142 7587 ft 222 kts 275°
2026-05-06 17:54 42.66903 23.86054 7239 ft 221 kts 274°
2026-05-06 17:54 42.67008 23.83974 6909 ft 220 kts 274°
2026-05-06 17:54 42.67258 23.81934 6565 ft 219 kts 282°
2026-05-06 17:54 42.67445 23.79883 6199 ft 219 kts 271°
2026-05-06 17:55 42.67496 23.77814 5995 ft 219 kts 271°
2026-05-06 17:55 42.67569 23.75741 5992 ft 220 kts 272°
2026-05-06 17:55 42.67689 23.73671 5884 ft 217 kts 274°
2026-05-06 17:55 42.67838 23.71668 5670 ft 210 kts 274°
2026-05-06 17:56 42.67966 23.69702 5430 ft 208 kts 273°
2026-05-06 17:56 42.68069 23.67747 5175 ft 207 kts 273°
2026-05-06 17:56 42.68180 23.65840 4939 ft 200 kts 274°
2026-05-06 17:56 42.68300 23.63983 4648 ft 195 kts 270°
2026-05-06 17:57 42.68387 23.62167 4368 ft 189 kts 267°
2026-05-06 17:57 42.68492 23.60414 4116 ft 184 kts 275°
2026-05-06 17:57 42.68625 23.58712 3870 ft 179 kts 274°
2026-05-06 17:57 42.68723 23.57061 3649 ft 172 kts 273°
2026-05-06 17:58 42.68820 23.55487 3422 ft 161 kts 273°
2026-05-06 17:58 42.68900 23.54045 3256 ft 150 kts 272°
2026-05-06 17:58 42.68994 23.52664 2983 ft 145 kts 272°
2026-05-06 17:58 42.69082 23.51300 2814 ft 147 kts 271°
2026-05-06 17:59 42.69157 23.49910 2628 ft 147 kts 271°
2026-05-06 17:59 42.69232 23.48529 2444 ft 146 kts 271°
2026-05-06 17:59 42.69319 23.47154 2236 ft 146 kts 272°
2026-05-06 17:59 42.69402 23.45786 2041 ft 146 kts 271°
2026-05-06 18:00 42.69485 23.44405 1862 ft 146 kts 272°
2026-05-06 18:00 42.69565 23.43060 1757 ft 132 kts 275°
2026-05-06 18:00 42.69629 23.42058 1757 ft 81 kts 274°
2026-05-06 18:00 42.69670 23.41380 1757 ft 60 kts 274°
2026-05-06 18:01 42.69674 23.40969 1757 ft 41 kts 260°
2026-05-06 18:01 42.69616 23.40734 1757 ft 15 kts 244°
2026-05-06 18:01 42.69577 23.40623 1757 ft 9 kts 244°
2026-05-06 18:01 42.69558 23.40569 1757 ft 7 kts 244°
2026-05-06 18:02 42.69522 23.40504 1757 ft 10 kts 214°
2026-05-06 18:02 42.69447 23.40459 1757 ft 13 kts 196°
2026-05-06 18:02 42.69348 23.40419 1757 ft 16 kts 197°
2026-05-06 18:02 42.69232 23.40370 1757 ft 13 kts 197°
2026-05-06 18:03 42.69163 23.40307 1757 ft 11 kts 255°
2026-05-06 18:03 42.69123 23.40263 1757 ft 9 kts 194°
2026-05-06 18:03 42.69093 23.40251 1757 ft 0 kts 196°
2026-05-06 18:03 42.69092 23.40251 1757 ft 0 kts 196°